When you browse on this site, cookies collect data to enhance your experience and personalize the content and advertising you see.
Visit our Privacy Policy to learn more. By continuing to use the site, you agree to this use of cookies and data.
  • In United Kingdom
  • List of Countries
  • For 7 days
  • Water Temperature
  • Weather Map
  • Weather Widgets
  • user-avatar
    Login

    Hourly Weather Masvingo

    Today, 20 September, Friday

    Time Temperature Precipitation Wind Pressure Humidity
    00:00 +18°C° 0 mm 2 mps 675 mmHg 49%
    01:00 +17°C° 0 mm 2 mps 675 mmHg 51%
    02:00 +16°C° 0 mm 1 mps 675 mmHg 56%
    03:00 +16°C° 0 mm 2 mps 675 mmHg 56%
    04:00 +16°C° 0 mm 2 mps 675 mmHg 56%
    05:00 +15°C° 0 mm 2 mps 675 mmHg 56%
    06:00 +18°C° 0 mm 2 mps 675 mmHg 47%
    07:00 +20°C° 0 mm 3 mps 676 mmHg 37%
    08:00 +23°C° 0 mm 4 mps 677 mmHg 28%
    09:00 +26°C° 0 mm 5 mps 677 mmHg 23%
    10:00 +28°C° 0 mm 5 mps 677 mmHg 19%
    11:00 +30°C° 0 mm 6 mps 677 mmHg 14%
    12:00 +32°C° 0 mm 6 mps 676 mmHg 14%
    13:00 +32°C° 0 mm 6 mps 675 mmHg 14%
    14:00 +33°C° 0 mm 6 mps 674 mmHg 14%
    15:00 +32°C° 0 mm 5 mps 674 mmHg 16%
    16:00 +30°C° 0 mm 5 mps 674 mmHg 19%
    17:00 +29°C° 0 mm 5 mps 674 mmHg 21%
    18:00 +27°C° 0 mm 5 mps 674 mmHg 26%
    19:00 +25°C° 0 mm 4 mps 674 mmHg 31%
    20:00 +22°C° 0 mm 4 mps 674 mmHg 37%
    21:00 +21°C° 0 mm 4 mps 674 mmHg 42%
    22:00 +20°C° 0 mm 3 mps 674 mmHg 47%
    23:00 +19°C° 0 mm 3 mps 674 mmHg 51%

    Tomorrow, 21 September, Saturday

    Time Temperature Precipitation Wind Pressure Humidity
    00:00 +18°C° 0 mm 3 mps 673 mmHg 54%
    01:00 +18°C° 0 mm 2 mps 673 mmHg 57%
    02:00 +17°C° 0 mm 2 mps 672 mmHg 59%
    03:00 +16°C° 0 mm 2 mps 672 mmHg 62%
    04:00 +15°C° 0 mm 1 mps 672 mmHg 65%
    05:00 +15°C° 0 mm 1 mps 672 mmHg 68%
    06:00 +18°C° 0 mm 1 mps 673 mmHg 57%
    07:00 +21°C° 0 mm 1 mps 673 mmHg 46%
    08:00 +23°C° 0 mm 1 mps 674 mmHg 36%
    09:00 +26°C° 0 mm 2 mps 674 mmHg 28%
    10:00 +29°C° 0 mm 3 mps 674 mmHg 20%
    11:00 +31°C° 0 mm 3 mps 675 mmHg 12%
    12:00 +33°C° 0 mm 4 mps 674 mmHg 10%
    13:00 +34°C° 0 mm 4 mps 673 mmHg 9%
    14:00 +36°C° 0 mm 4 mps 672 mmHg 8%
    15:00 +35°C° 0 mm 4 mps 672 mmHg 9%
    16:00 +34°C° 0 mm 4 mps 672 mmHg 9%
    17:00 +33°C° 0 mm 4 mps 671 mmHg 10%
    18:00 +29°C° 0 mm 4 mps 671 mmHg 15%
    19:00 +27°C° 0 mm 4 mps 671 mmHg 20%
    20:00 +23°C° 0 mm 4 mps 671 mmHg 25%
    21:00 +22°C° 0 mm 4 mps 671 mmHg 29%
    22:00 +21°C° 0 mm 3 mps 671 mmHg 32%
    23:00 +19°C° 0 mm 2 mps 671 mmHg 36%

    Day after tomorrow, 22 September, Sunday

    Time Temperature Precipitation Wind Pressure Humidity
    00:00 +19°C° 0 mm 2 mps 671 mmHg 37%
    01:00 +18°C° 0 mm 2 mps 671 mmHg 38%
    02:00 +18°C° 0 mm 2 mps 670 mmHg 39%
    03:00 +18°C° 0 mm 2 mps 670 mmHg 39%
    04:00 +18°C° 0 mm 2 mps 670 mmHg 38%
    05:00 +17°C° 0 mm 2 mps 670 mmHg 38%
    06:00 +20°C° 0 mm 2 mps 671 mmHg 33%
    07:00 +24°C° 0 mm 1 mps 672 mmHg 27%
    08:00 +27°C° 0 mm 1 mps 673 mmHg 22%
    09:00 +30°C° 0 mm 1 mps 673 mmHg 18%
    10:00 +34°C° 0 mm 1 mps 673 mmHg 15%
    11:00 +37°C° 0 mm 1 mps 673 mmHg 11%
    12:00 +38°C° 0 mm 2 mps 672 mmHg 10%
    13:00 +38°C° 0 mm 2 mps 672 mmHg 9%
    14:00 +38°C° 0 mm 3 mps 671 mmHg 8%
    15:00 +37°C° 0 mm 3 mps 671 mmHg 9%
    16:00 +36°C° 0 mm 4 mps 670 mmHg 10%
    17:00 +35°C° 0 mm 4 mps 670 mmHg 10%
    18:00 +33°C° 0 mm 4 mps 670 mmHg 12%
    19:00 +29°C° 0 mm 4 mps 670 mmHg 14%
    20:00 +27°C° 0 mm 3 mps 671 mmHg 16%
    21:00 +26°C° 0 mm 3 mps 671 mmHg 20%
    22:00 +25°C° 0 mm 3 mps 671 mmHg 25%
    23:00 +24°C° 0 mm 3 mps 671 mmHg 29%

    23 September, Monday

    Time Temperature Precipitation Wind Pressure Humidity
    00:00 +24°C° 0 mm 3 mps 671 mmHg 32%
    01:00 +22°C° 0 mm 3 mps 671 mmHg 35%
    02:00 +23°C° 0 mm 2 mps 670 mmHg 38%
    03:00 +21°C° 0 mm 3 mps 670 mmHg 38%
    04:00 +21°C° 0 mm 3 mps 670 mmHg 38%
    05:00 +21°C° 0 mm 3 mps 670 mmHg 37%
    06:00 +25°C° 0 mm 3 mps 672 mmHg 32%
    07:00 +28°C° 0 mm 3 mps 673 mmHg 28%
    08:00 +30°C° 0 mm 2 mps 674 mmHg 23%
    09:00 +32°C° 0 mm 4 mps 674 mmHg 25%
    10:00 +32°C° 0 mm 5 mps 674 mmHg 28%
    11:00 +32°C° 0 mm 6 mps 674 mmHg 30%
    12:00 +32°C° 0 mm 6 mps 673 mmHg 30%
    13:00 +33°C° 0 mm 7 mps 673 mmHg 30%
    14:00 +33°C° 0 mm 7 mps 673 mmHg 30%
    15:00 +32°C° 0 mm 7 mps 673 mmHg 35%
    16:00 +29°C° 0 mm 7 mps 673 mmHg 40%
    17:00 +28°C° 0 mm 7 mps 672 mmHg 45%
    18:00 +26°C° 0 mm 7 mps 673 mmHg 52%
    19:00 +23°C° 0 mm 7 mps 674 mmHg 59%
    20:00 +22°C° 0 mm 7 mps 674 mmHg 66%
    21:00 +21°C° 0 mm 6 mps 674 mmHg 70%
    22:00 +20°C° 0 mm 6 mps 675 mmHg 74%
    23:00 +19°C° 0 mm 6 mps 675 mmHg 79%

    24 September, Tuesday

    Time Temperature Precipitation Wind Pressure Humidity
    00:00 +17°C° 0 mm 5 mps 675 mmHg 81%
    01:00 +17°C° 0 mm 5 mps 674 mmHg 83%
    02:00 +17°C° 0 mm 4 mps 674 mmHg 85%
    03:00 +17°C° 0 mm 4 mps 674 mmHg 85%
    04:00 +17°C° 0 mm 4 mps 674 mmHg 85%
    05:00 +17°C° 0 mm 4 mps 675 mmHg 85%
    06:00 +17°C° 0 mm 4 mps 675 mmHg 83%
    07:00 +17°C° 0 mm 4 mps 675 mmHg 81%
    08:00 +17°C° 0 mm 4 mps 676 mmHg 79%
    09:00 +17°C° 0 mm 5 mps 676 mmHg 74%
    10:00 +19°C° 0 mm 5 mps 675 mmHg 69%
    11:00 +20°C° 0 mm 5 mps 675 mmHg 63%
    12:00 +21°C° 0 mm 5 mps 675 mmHg 60%
    13:00 +22°C° 0 mm 5 mps 674 mmHg 56%
    14:00 +23°C° 0 mm 5 mps 674 mmHg 52%
    15:00 +23°C° 0 mm 5 mps 674 mmHg 54%
    16:00 +22°C° 0 mm 5 mps 673 mmHg 55%
    17:00 +22°C° 0 mm 5 mps 673 mmHg 56%
    18:00 +20°C° 0 mm 5 mps 674 mmHg 63%
    19:00 +17°C° 0 mm 5 mps 674 mmHg 70%
    20:00 +16°C° 0 mm 5 mps 674 mmHg 76%
    21:00 +15°C° 0 mm 4 mps 674 mmHg 79%
    22:00 +15°C° 0 mm 4 mps 674 mmHg 81%
    23:00 +14°C° 0 mm 3 mps 674 mmHg 84%

    25 September, Wednesday

    Time Temperature Precipitation Wind Pressure Humidity
    00:00 +14°C° 0 mm 4 mps 674 mmHg 82%
    01:00 +14°C° 0 mm 4 mps 674 mmHg 80%
    02:00 +14°C° 0 mm 4 mps 674 mmHg 79%
    03:00 +14°C° 0 mm 4 mps 674 mmHg 78%
    04:00 +14°C° 0 mm 4 mps 674 mmHg 78%
    05:00 +14°C° 0 mm 4 mps 675 mmHg 77%
    06:00 +15°C° 0 mm 4 mps 675 mmHg 74%
    07:00 +15°C° 0 mm 5 mps 676 mmHg 70%
    08:00 +16°C° 0 mm 5 mps 676 mmHg 67%
    09:00 +16°C° 0 mm 5 mps 676 mmHg 66%
    10:00 +16°C° 0 mm 5 mps 676 mmHg 66%
    11:00 +17°C° 0 mm 5 mps 676 mmHg 65%
    12:00 +19°C° 0 mm 6 mps 676 mmHg 58%
    13:00 +20°C° 0 mm 6 mps 676 mmHg 52%
    14:00 +21°C° 0 mm 6 mps 676 mmHg 45%
    15:00 +21°C° 0 mm 6 mps 675 mmHg 48%
    16:00 +20°C° 0 mm 6 mps 675 mmHg 50%
    17:00 +19°C° 0 mm 6 mps 675 mmHg 53%
    18:00 +17°C° 0 mm 5 mps 675 mmHg 58%
    19:00 +15°C° 0 mm 4 mps 676 mmHg 63%
    20:00 +14°C° 0 mm 3 mps 676 mmHg 67%
    21:00 +13°C° 0 mm 4 mps 676 mmHg 71%
    22:00 +13°C° 0 mm 5 mps 677 mmHg 74%
    23:00 +11°C° 0 mm 7 mps 677 mmHg 78%
    Show more